When you browse on this site, cookies collect data to enhance your experience and personalize the content and advertising you see.
Visit our Privacy Policy to learn more. By continuing to use the site, you agree to this use of cookies and data.
  • In Lithuania
  • List of Countries
  • For 7 days
  • Water Temperature
  • Weather Map
  • Weather Widgets
  • user-avatar
    Login

    Hourly Weather Canberra

    Today, 22 September, Sunday

    Time Temperature Precipitation Wind Pressure Humidity
    00:00 +10°C° 0 mm 3 mps 710 mmHg 93%
    01:00 +10°C° 0 mm 3 mps 710 mmHg 91%
    02:00 +9°C° 0 mm 3 mps 710 mmHg 91%
    03:00 +8°C° 0 mm 2 mps 710 mmHg 91%
    04:00 +8°C° 0 mm 2 mps 710 mmHg 95%
    05:00 +8°C° 0 mm 2 mps 711 mmHg 93%
    06:00 +8°C° 0 mm 2 mps 712 mmHg 91%
    07:00 +7°C° 0 mm 2 mps 712 mmHg 88%
    08:00 +9°C° 0 mm 3 mps 713 mmHg 77%
    09:00 +11°C° 0 mm 4 mps 713 mmHg 65%
    10:00 +13°C° 0 mm 3 mps 713 mmHg 56%
    11:00 +14°C° 0 mm 4 mps 713 mmHg 53%
    12:00 +15°C° 0 mm 4 mps 712 mmHg 49%
    13:00 +15°C° 0 mm 5 mps 712 mmHg 46%
    14:00 +15°C° 0 mm 5 mps 712 mmHg 48%
    15:00 +14°C° 0 mm 5 mps 712 mmHg 50%
    16:00 +14°C° 0 mm 4 mps 712 mmHg 54%
    17:00 +12°C° 0 mm 4 mps 712 mmHg 61%
    18:00 +10°C° 0 mm 3 mps 713 mmHg 68%
    19:00 +8°C° 0 mm 3 mps 713 mmHg 74%
    20:00 +7°C° 0 mm 2 mps 713 mmHg 76%
    21:00 +6°C° 0 mm 2 mps 713 mmHg 77%
    22:00 +6°C° 0 mm 1 mps 713 mmHg 79%
    23:00 +6°C° 0 mm 1 mps 713 mmHg 80%

    Tomorrow, 23 September, Monday

    Time Temperature Precipitation Wind Pressure Humidity
    00:00 +5°C° 0 mm 1 mps 713 mmHg 82%
    01:00 +4°C° 0 mm 1 mps 713 mmHg 83%
    02:00 +4°C° 0 mm 1 mps 713 mmHg 85%
    03:00 +4°C° 0 mm 1 mps 712 mmHg 86%
    04:00 +4°C° 0 mm 1 mps 712 mmHg 87%
    05:00 +4°C° 0 mm 1 mps 712 mmHg 85%
    06:00 +4°C° 0 mm 2 mps 713 mmHg 83%
    07:00 +5°C° 0 mm 2 mps 713 mmHg 80%
    08:00 +5°C° 0.1 mm 4 mps 713 mmHg 77%
    09:00 +6°C° 0.1 mm 5 mps 713 mmHg 75%
    10:00 +8°C° 0.1 mm 6 mps 713 mmHg 72%
    11:00 +9°C° 0.1 mm 6 mps 712 mmHg 66%
    12:00 +9°C° 0.1 mm 6 mps 712 mmHg 60%
    13:00 +10°C° 0.1 mm 6 mps 712 mmHg 54%
    14:00 +10°C° 0.1 mm 6 mps 712 mmHg 53%
    15:00 +10°C° 0.1 mm 6 mps 712 mmHg 53%
    16:00 +10°C° 0.1 mm 5 mps 712 mmHg 52%
    17:00 +8°C° 0 mm 4 mps 713 mmHg 62%
    18:00 +7°C° 0 mm 3 mps 713 mmHg 71%
    19:00 +5°C° 0 mm 2 mps 714 mmHg 80%
    20:00 +4°C° 0 mm 2 mps 714 mmHg 84%
    21:00 +4°C° 0 mm 1 mps 714 mmHg 88%
    22:00 +4°C° 0 mm 1 mps 715 mmHg 92%
    23:00 +3°C° 0 mm 1 mps 715 mmHg 92%

    Day after tomorrow, 24 September, Tuesday

    Time Temperature Precipitation Wind Pressure Humidity
    00:00 +2°C° 0 mm 0 mps 715 mmHg 92%
    01:00 +1°C° 0 mm 0 mps 714 mmHg 92%
    02:00 +1°C° 0 mm 0 mps 714 mmHg 92%
    03:00 +1°C° 0 mm 0 mps 714 mmHg 92%
    04:00 0°C° 0 mm 0 mps 714 mmHg 92%
    05:00 +1°C° 0 mm 0 mps 715 mmHg 90%
    06:00 +3°C° 0 mm 1 mps 715 mmHg 87%
    07:00 +4°C° 0 mm 1 mps 716 mmHg 85%
    08:00 +7°C° 0 mm 1 mps 716 mmHg 75%
    09:00 +9°C° 0 mm 2 mps 716 mmHg 65%
    10:00 +11°C° 0 mm 3 mps 716 mmHg 56%
    11:00 +12°C° 0 mm 4 mps 715 mmHg 53%
    12:00 +14°C° 0 mm 4 mps 715 mmHg 50%
    13:00 +15°C° 0 mm 5 mps 715 mmHg 48%
    14:00 +14°C° 0 mm 5 mps 714 mmHg 51%
    15:00 +14°C° 0 mm 5 mps 714 mmHg 53%
    16:00 +13°C° 0 mm 5 mps 714 mmHg 56%
    17:00 +11°C° 0 mm 4 mps 714 mmHg 66%
    18:00 +8°C° 0 mm 3 mps 715 mmHg 76%
    19:00 +6°C° 0 mm 2 mps 715 mmHg 87%
    20:00 +5°C° 0 mm 2 mps 715 mmHg 89%
    21:00 +5°C° 0 mm 1 mps 715 mmHg 91%
    22:00 +3°C° 0 mm 0 mps 716 mmHg 94%
    23:00 +4°C° 0 mm 1 mps 716 mmHg 94%

    25 September, Wednesday

    Time Temperature Precipitation Wind Pressure Humidity
    00:00 +4°C° 0 mm 1 mps 716 mmHg 94%
    01:00 +4°C° 0 mm 1 mps 716 mmHg 94%
    02:00 +5°C° 0 mm 1 mps 716 mmHg 92%
    03:00 +5°C° 0 mm 1 mps 716 mmHg 91%
    04:00 +5°C° 0 mm 1 mps 716 mmHg 90%
    05:00 +5°C° 0 mm 0 mps 716 mmHg 88%
    06:00 +5°C° 0 mm 0 mps 716 mmHg 85%
    07:00 +6°C° 0 mm 0 mps 717 mmHg 83%
    08:00 +8°C° 0 mm 0 mps 717 mmHg 75%
    09:00 +10°C° 0 mm 0 mps 717 mmHg 67%
    10:00 +12°C° 0 mm 0 mps 717 mmHg 59%
    11:00 +14°C° 0 mm 1 mps 716 mmHg 56%
    12:00 +15°C° 0 mm 1 mps 716 mmHg 52%
    13:00 +16°C° 0 mm 1 mps 715 mmHg 49%
    14:00 +16°C° 0 mm 2 mps 715 mmHg 53%
    15:00 +14°C° 0 mm 3 mps 715 mmHg 57%
    16:00 +14°C° 0 mm 3 mps 714 mmHg 61%
    17:00 +12°C° 0 mm 2 mps 715 mmHg 71%
    18:00 +9°C° 0 mm 2 mps 715 mmHg 81%
    19:00 +8°C° 0 mm 1 mps 715 mmHg 90%
    20:00 +8°C° 0 mm 1 mps 715 mmHg 92%
    21:00 +7°C° 0 mm 1 mps 716 mmHg 93%
    22:00 +7°C° 0 mm 1 mps 716 mmHg 95%
    23:00 +7°C° 0 mm 1 mps 716 mmHg 95%

    26 September, Thursday

    Time Temperature Precipitation Wind Pressure Humidity
    00:00 +6°C° 0 mm 0 mps 716 mmHg 95%
    01:00 +5°C° 0 mm 0 mps 715 mmHg 95%
    02:00 +5°C° 0 mm 0 mps 715 mmHg 95%
    03:00 +5°C° 0 mm 0 mps 715 mmHg 96%
    04:00 +4°C° 0 mm 0 mps 714 mmHg 96%
    05:00 +5°C° 0 mm 0 mps 715 mmHg 95%
    06:00 +5°C° 0 mm 0 mps 715 mmHg 94%
    07:00 +6°C° 0 mm 1 mps 715 mmHg 93%
    08:00 +9°C° 0 mm 1 mps 715 mmHg 83%
    09:00 +11°C° 0 mm 1 mps 715 mmHg 74%
    10:00 +13°C° 0 mm 2 mps 715 mmHg 65%
    11:00 +14°C° 0 mm 2 mps 714 mmHg 61%
    12:00 +15°C° 0 mm 2 mps 714 mmHg 58%
    13:00 +16°C° 0 mm 3 mps 714 mmHg 54%
    14:00 +16°C° 0 mm 3 mps 713 mmHg 57%
    15:00 +14°C° 0 mm 4 mps 713 mmHg 61%
    16:00 +14°C° 0 mm 4 mps 712 mmHg 64%
    17:00 +12°C° 0 mm 3 mps 712 mmHg 74%
    18:00 +10°C° 0 mm 3 mps 712 mmHg 83%
    19:00 +8°C° 0 mm 2 mps 713 mmHg 93%
    20:00 +7°C° 0 mm 2 mps 713 mmHg 94%
    21:00 +7°C° 0 mm 1 mps 713 mmHg 95%
    22:00 +7°C° 0 mm 1 mps 713 mmHg 96%
    23:00 +6°C° 0 mm 1 mps 712 mmHg 96%

    27 September, Friday

    Time Temperature Precipitation Wind Pressure Humidity
    00:00 +6°C° 0 mm 1 mps 712 mmHg 96%
    01:00 +5°C° 0 mm 1 mps 712 mmHg 96%
    02:00 +5°C° 0 mm 1 mps 712 mmHg 96%
    03:00 +5°C° 0 mm 1 mps 711 mmHg 96%
    04:00 +4°C° 0 mm 1 mps 711 mmHg 96%
    05:00 +5°C° 0 mm 1 mps 711 mmHg 94%
    06:00 +6°C° 0 mm 1 mps 711 mmHg 91%
    07:00 +7°C° 0 mm 1 mps 711 mmHg 89%
    08:00 +8°C° 0 mm 2 mps 711 mmHg 78%
    09:00 +11°C° 0 mm 3 mps 712 mmHg 68%
    10:00 +14°C° 0 mm 3 mps 712 mmHg 58%
    11:00 +15°C° 0 mm 4 mps 712 mmHg 53%
    12:00 +17°C° 0 mm 5 mps 711 mmHg 49%
    13:00 +19°C° 0 mm 5 mps 711 mmHg 44%
    14:00 +19°C° 0 mm 5 mps 711 mmHg 47%
    15:00 +17°C° 0 mm 5 mps 711 mmHg 51%
    16:00 +18°C° 0 mm 4 mps 711 mmHg 54%
    17:00 +15°C° 0 mm 4 mps 711 mmHg 60%
    18:00 +13°C° 0 mm 3 mps 712 mmHg 67%
    19:00 +12°C° 0 mm 2 mps 712 mmHg 74%
    20:00 +11°C° 0 mm 1 mps 712 mmHg 78%
    21:00 +10°C° 0 mm 1 mps 712 mmHg 82%
    22:00 +8°C° 0 mm 0 mps 713 mmHg 87%
    23:00 +8°C° 0 mm 1 mps 713 mmHg 89%
    Show more